Starlink 5269

operational
NORAD ID: 54161 Int'l Des: 2022-141 Owner: SPXS Country: US Constellation: starlink
LEOCIRCULAR

About Starlink 5269

Description loading...

Live Position

Loading 3D Globe...

Upcoming Passes

Altitude History

Altitude vs Time

uPlot chart will show altitude changes over time

Two-Line Element Set

1 54161U 22141E 25350.34563280 .00000597 00000-0 55617-4 0 9992
2 54161 53.2206 28.3737 0001436 94.9377 265.1779 15.08839564173131
Epoch: Dec 16, 2025 • Age: 16 hours

Current Status

Altitude 543.4 km
Velocity 7.60 km/s
Sub-Earth Point 44.35°N, 61.97°E
Launch Date Oct 28, 2022
Age 3.1 years
Type internet

Technical Details

Classification Payload
Mass 305.00 kg
Dry Mass 290.00 kg
Total Mass 305.00 kg
Length 0.20 m
Diameter 2.80 m
Span 9.00 m
Shape Box + pan
Manufacturer SPXS
Bus Type Starlink
Phase Status In Orbit
Owner/State SPXS/US

Large Constellations

Loading constellations...